Time,TemperatureF,DewpointF,PressureIn,WindDirection,WindDirectionDegrees,WindSpeedMPH,WindSpeedGustMPH,Humidity,HourlyPrecipIn,Conditions,Clouds,dailyrainin,SoftwareType,DateUTC
2013-07-16 00:00:00,53.0,35.0,-100.00,North,-999,-999.0,-999.0,49,-99.99,,,-99.99,,2013-07-16 07:00:00,
2013-07-16 01:00:00,53.0,36.0,-100.00,NNW,338,4.0,7.0,52,-99.99,,,-99.99,,2013-07-16 08:00:00,
2013-07-16 01:52:00,53.0,36.0,-100.00,NNW,338,4.0,7.0,52,-99.99,,,-99.99,,2013-07-16 08:52:00,
2013-07-16 02:00:00,52.0,36.0,-100.00,NNW,329,4.0,7.0,53,-99.99,,,0.00,,2013-07-16 09:00:00,
2013-07-16 03:00:00,52.0,35.0,-100.00,NNW,327,5.0,7.0,52,-99.99,,,0.00,,2013-07-16 10:00:00,
2013-07-16 03:52:00,52.0,35.0,-100.00,NNW,327,5.0,7.0,52,-99.99,,,0.00,,2013-07-16 10:52:00,
2013-07-16 04:00:00,53.0,34.0,-100.00,NNW,330,4.0,5.0,48,-99.99,,,0.00,,2013-07-16 11:00:00,
2013-07-16 04:53:00,53.0,34.0,-100.00,NNW,330,4.0,5.0,48,-99.99,,,0.00,,2013-07-16 11:53:00,
2013-07-16 05:00:00,53.0,34.0,-100.00,NNE,13,4.0,6.0,48,-99.99,,,0.00,,2013-07-16 12:00:00,
2013-07-16 06:00:00,53.0,35.0,-100.00,NNW,344,4.0,6.0,50,-99.99,,,0.00,,2013-07-16 13:00:00,
2013-07-16 07:00:00,55.0,34.0,-100.00,NNW,344,5.0,7.0,45,-99.99,,,0.00,,2013-07-16 14:00:00,
2013-07-16 08:00:00,58.0,33.0,-100.00,North,355,6.0,7.0,39,-99.99,,,0.00,,2013-07-16 15:00:00,
2013-07-16 09:00:00,58.0,29.0,-100.00,NNW,339,6.0,8.0,33,-99.99,,,0.00,,2013-07-16 16:00:00,
2013-07-16 10:00:00,60.0,33.0,-100.00,NE,40,7.0,9.0,36,-99.99,,,0.00,,2013-07-16 17:00:00,
2013-07-16 11:00:00,62.0,35.0,-100.00,NNE,17,5.0,8.0,36,-99.99,,,0.00,,2013-07-16 18:00:00,
2013-07-16 12:00:00,66.0,36.0,-100.00,NE,37,5.0,7.0,33,-99.99,,,-99.99,,2013-07-16 19:00:00,
2013-07-16 13:00:00,67.0,35.0,-100.00,North,-999,-999.0,-999.0,31,-99.99,,,0.00,,2013-07-16 20:00:00,
2013-07-16 14:00:00,69.0,36.0,-100.00,North,1,6.0,9.0,30,-99.99,,,0.00,,2013-07-16 21:00:00,
2013-07-16 15:00:00,69.0,36.0,-100.00,NW,319,6.0,9.0,29,-99.99,,,-99.99,,2013-07-16 22:00:00,
2013-07-16 16:00:00,68.0,32.0,-100.00,NE,35,5.0,8.0,26,-99.99,,,0.00,,2013-07-16 23:00:00,
2013-07-16 17:00:00,66.0,31.0,-100.00,NE,37,4.0,8.0,27,-99.99,,,0.00,,2013-07-17 00:00:00,
2013-07-16 17:52:00,66.0,31.0,-100.00,NE,37,4.0,8.0,27,-99.99,,,0.00,,2013-07-17 00:52:00,
2013-07-16 18:00:00,67.0,32.0,-100.00,NW,326,3.0,5.0,28,-99.99,,,0.00,,2013-07-17 01:00:00,
2013-07-16 18:53:00,67.0,32.0,-100.00,NW,326,3.0,5.0,28,-99.99,,,0.00,,2013-07-17 01:53:00,
2013-07-16 19:00:00,67.0,32.0,-100.00,NE,38,3.0,4.0,27,-99.99,,,0.00,,2013-07-17 02:00:00,
2013-07-16 19:53:00,67.0,32.0,-100.00,NE,38,3.0,4.0,27,-99.99,,,0.00,,2013-07-17 02:53:00,
2013-07-16 20:00:00,66.0,30.0,-100.00,SW,218,2.0,6.0,26,-99.99,,,0.00,,2013-07-17 03:00:00,
2013-07-16 20:53:00,66.0,30.0,-100.00,SW,218,2.0,6.0,26,-99.99,,,0.00,,2013-07-17 03:53:00,
2013-07-16 21:00:00,65.0,34.0,-100.00,NNE,26,3.0,7.0,31,-99.99,,,0.00,,2013-07-17 04:00:00,
2013-07-16 21:53:00,65.0,34.0,-100.00,NNE,26,3.0,7.0,31,-99.99,,,0.00,,2013-07-17 04:53:00,
2013-07-16 22:00:00,63.0,32.0,-100.00,NNW,344,3.0,7.0,31,-99.99,,,0.00,,2013-07-17 05:00:00,
2013-07-16 23:00:00,64.0,32.0,-100.00,NW,307,3.0,5.0,30,-99.99,,,0.00,,2013-07-17 06:00:00,